(354) Eleonora
ephemeris date magn radius delta ra dec elong phase
Today13 Jul 202611.13.106 AU2.245 AU22h01m-10°32'141.6°11.7°
Opposition15 Aug 202610.33.112 AU2.099 AU21h40m-15°03'179.0°0.3°
(354) Eleonora - 2026-07-13
astro.vanbuitenen.nl


 
-1 year
-1 month
-1 day
Now
+1 day
+1 month
+1 year

The interactive orbit chart above shows the body's path through the solar system and its position at the given date. Green and blue lines are shown perpendicular to the ecliptic plane: Green if the path is above the ecliptic plane, blue if it is below. (Left-click and drag to rotate the view; Right-click and drag to move the view; Use scroll wheel to zoom in our out.)

The orbital elements of Eleonora are:

            e (Eccentricity)                : 0.1118861
            a (Semimajor axis)              : 2.8007731
            i (Inclination)                 : 18.36241
            Ω (Longitude of ascending node) : 140.20387
            ω (Argument of perihelion)      : 8.17864
            M (Mean anomaly)                : 158.40049
            Epoch                           : 2026 Jun 09

            L (Longitude of perihelion)     : 147.97129
            B (Latitude of perihelion)      : 2.56861
            P (Orbital period in years)     : 4.69            
        

The light curve chart below shows the estimated development of the minor planet's magnitude.


The all-sky chart below shows the path of the minor planet over the same period as the light curve. The current position is marked yellow.





The following chart shows the path of the minor planet in the next few days. The field of view is optimized for (~10x50) binoculars and finderscopes.




Ephemerides:
Date       Time       RA (2000)    DEC (2000)    delta   radius  elong  phase   PA    magn
2026-07-13 00:00 UT   22 01 02.3   -10 32 00     2.245    3.106  141.6   11.7   248   11.1 
2026-07-13 09:10 UT   22 00 53.7   -10 34 27     2.241    3.106  142.0   11.6   248   11.1 
2026-07-14 00:00 UT   22 00 39.5   -10 38 27     2.236    3.106  142.7   11.4   248   11.1 
2026-07-15 00:00 UT   22 00 15.4   -10 45 02     2.228    3.107  143.8   11.1   248   11.1 
2026-07-16 00:00 UT   21 59 50.3   -10 51 46     2.220    3.107  144.9   10.9   248   11.0 
2026-07-17 00:00 UT   21 59 24.0   -10 58 38     2.212    3.107  146.0   10.6   248   11.0 
2026-07-18 00:00 UT   21 58 56.5   -11 05 39     2.205    3.107  147.1   10.2   248   11.0 
2026-07-19 00:00 UT   21 58 28.0   -11 12 47     2.197    3.107  148.2    9.9   248   11.0 
2026-07-20 00:00 UT   21 57 58.4   -11 20 03     2.190    3.108  149.3    9.6   248   11.0 
2026-07-21 00:00 UT   21 57 27.8   -11 27 26     2.184    3.108  150.4    9.3   248   10.9 
2026-07-22 00:00 UT   21 56 56.1   -11 34 57     2.177    3.108  151.5    9.0   248   10.9 
2026-07-23 00:00 UT   21 56 23.4   -11 42 34     2.171    3.108  152.6    8.6   249   10.9 
2026-07-24 00:00 UT   21 55 49.8   -11 50 18     2.165    3.108  153.8    8.3   249   10.9 
2026-07-25 00:00 UT   21 55 15.2   -11 58 09     2.159    3.109  154.9    8.0   249   10.9 
2026-07-26 00:00 UT   21 54 39.6   -12 06 06     2.153    3.109  156.0    7.6   249   10.8 
2026-07-27 00:00 UT   21 54 03.2   -12 14 09     2.148    3.109  157.2    7.3   249   10.8 
2026-07-28 00:00 UT   21 53 25.9   -12 22 18     2.143    3.109  158.3    6.9   249   10.8 
2026-07-29 00:00 UT   21 52 47.8   -12 30 32     2.138    3.109  159.5    6.6   249   10.8 
2026-07-30 00:00 UT   21 52 08.9   -12 38 52     2.134    3.110  160.6    6.2   250   10.8 
2026-07-31 00:00 UT   21 51 29.2   -12 47 16     2.129    3.110  161.8    5.9   250   10.7 
2026-08-01 00:00 UT   21 50 48.8   -12 55 44     2.125    3.110  162.9    5.5   250   10.7 
2026-08-02 00:00 UT   21 50 07.6   -13 04 17     2.122    3.110  164.1    5.1   250   10.7 
2026-08-03 00:00 UT   21 49 25.8   -13 12 53     2.118    3.110  165.3    4.8   251   10.7 
2026-08-04 00:00 UT   21 48 43.4   -13 21 33     2.115    3.110  166.4    4.4   251   10.6 
2026-08-05 00:00 UT   21 48 00.4   -13 30 16     2.112    3.111  167.6    4.0   251   10.6 
2026-08-06 00:00 UT   21 47 16.8   -13 39 02     2.110    3.111  168.8    3.6   252   10.6 
2026-08-07 00:00 UT   21 46 32.7   -13 47 51     2.107    3.111  170.0    3.3   253   10.6 
2026-08-08 00:00 UT   21 45 48.1   -13 56 41     2.105    3.111  171.1    2.9   254   10.5 
2026-08-09 00:00 UT   21 45 03.2   -14 05 34     2.103    3.111  172.3    2.5   255   10.5 
2026-08-10 00:00 UT   21 44 17.8   -14 14 27     2.102    3.111  173.5    2.1   256   10.5 
2026-08-11 00:00 UT   21 43 32.1   -14 23 22     2.101    3.111  174.6    1.7   258   10.5 
2026-08-12 00:00 UT   21 42 46.1   -14 32 16     2.100    3.112  175.8    1.4   261   10.4 


    Terminology:
            
    delta:  distance between minor planet and earth in AU
    radius: distance between minor planet and sun in AU
    magn:   magnitude (brightness) estimate    
    ra:     right ascension in hours (24h = 360deg)
    dec:    declination in degrees
    elong:  elongation in degrees (angle sun-earth-minor planet)    
    phase:  phase angle in degrees (angle sun-minor planet-earth)        
    AU:     Astronomical Unit (mean distance between earth and sun: 149597870.7 km
    

Orbital elements provided by the MPC (Minor Planet Center).
Calculations by a modified version of AAPlus, a C# implementation of the AA+ project by PJ Naughter from the algorithms presented in the book "Astronomical Algorithms" by Jean Meeus.
NGC2000 dso catalog and star labels from VizieR as provided by the Strasbourg astronomical Data Center.
Tycho2 catalog from the ESO archive.